Index of /20260507/WXO-DD/model_gdps/15km/00/108
Name Last modified Size Description
Parent Directory -
20260507T00Z_MSC_GDPS_AbsoluteVorticity_IsbL-0200_LatLon0.15_PT108H.grib2 2026-05-07 04:34 1.2M
20260507T00Z_MSC_GDPS_AbsoluteVorticity_IsbL-0250_LatLon0.15_PT108H.grib2 2026-05-07 04:34 1.3M
20260507T00Z_MSC_GDPS_AbsoluteVorticity_IsbL-0500_LatLon0.15_PT108H.grib2 2026-05-07 04:34 1.2M
20260507T00Z_MSC_GDPS_AbsoluteVorticity_IsbL-0700_LatLon0.15_PT108H.grib2 2026-05-07 04:34 1.3M
20260507T00Z_MSC_GDPS_AbsoluteVorticity_IsbL-0850_LatLon0.15_PT108H.grib2 2026-05-07 04:34 1.6M
20260507T00Z_MSC_GDPS_AirTemp-Max_AGL-2m_LatLon0.15_PT108H.grib2 2026-05-07 04:34 735K
20260507T00Z_MSC_GDPS_AirTemp-Min_AGL-2m_LatLon0.15_PT108H.grib2 2026-05-07 04:34 785K
20260507T00Z_MSC_GDPS_AirTemp_AGL-120m_LatLon0.15_PT108H.grib2 2026-05-07 04:34 906K
20260507T00Z_MSC_GDPS_AirTemp_AGL-2m_LatLon0.15_PT108H.grib2 2026-05-07 04:34 1.0M
20260507T00Z_MSC_GDPS_AirTemp_AGL-40m_LatLon0.15_PT108H.grib2 2026-05-07 04:34 805K
20260507T00Z_MSC_GDPS_AirTemp_AGL-80m_LatLon0.15_PT108H.grib2 2026-05-07 04:34 795K
20260507T00Z_MSC_GDPS_AirTemp_IsbL-0001_LatLon0.15_PT108H.grib2 2026-05-07 04:34 667K
20260507T00Z_MSC_GDPS_AirTemp_IsbL-0005_LatLon0.15_PT108H.grib2 2026-05-07 04:34 532K
20260507T00Z_MSC_GDPS_AirTemp_IsbL-0010_LatLon0.15_PT108H.grib2 2026-05-07 04:34 700K
20260507T00Z_MSC_GDPS_AirTemp_IsbL-0020_LatLon0.15_PT108H.grib2 2026-05-07 04:34 788K
20260507T00Z_MSC_GDPS_AirTemp_IsbL-0030_LatLon0.15_PT108H.grib2 2026-05-07 04:34 841K
20260507T00Z_MSC_GDPS_AirTemp_IsbL-0050_LatLon0.15_PT108H.grib2 2026-05-07 04:34 884K
20260507T00Z_MSC_GDPS_AirTemp_IsbL-0100_LatLon0.15_PT108H.grib2 2026-05-07 04:34 961K
20260507T00Z_MSC_GDPS_AirTemp_IsbL-0150_LatLon0.15_PT108H.grib2 2026-05-07 04:34 959K
20260507T00Z_MSC_GDPS_AirTemp_IsbL-0175_LatLon0.15_PT108H.grib2 2026-05-07 04:34 953K
20260507T00Z_MSC_GDPS_AirTemp_IsbL-0200_LatLon0.15_PT108H.grib2 2026-05-07 04:34 1.0M
20260507T00Z_MSC_GDPS_AirTemp_IsbL-0225_LatLon0.15_PT108H.grib2 2026-05-07 04:34 966K
20260507T00Z_MSC_GDPS_AirTemp_IsbL-0250_LatLon0.15_PT108H.grib2 2026-05-07 04:34 1.0M
20260507T00Z_MSC_GDPS_AirTemp_IsbL-0275_LatLon0.15_PT108H.grib2 2026-05-07 04:34 1.0M
20260507T00Z_MSC_GDPS_AirTemp_IsbL-0300_LatLon0.15_PT108H.grib2 2026-05-07 04:34 950K
20260507T00Z_MSC_GDPS_AirTemp_IsbL-0350_LatLon0.15_PT108H.grib2 2026-05-07 04:34 934K
20260507T00Z_MSC_GDPS_AirTemp_IsbL-0400_LatLon0.15_PT108H.grib2 2026-05-07 04:34 947K
20260507T00Z_MSC_GDPS_AirTemp_IsbL-0450_LatLon0.15_PT108H.grib2 2026-05-07 04:34 970K
20260507T00Z_MSC_GDPS_AirTemp_IsbL-0500_LatLon0.15_PT108H.grib2 2026-05-07 04:34 1.0M
20260507T00Z_MSC_GDPS_AirTemp_IsbL-0550_LatLon0.15_PT108H.grib2 2026-05-07 04:34 1.0M
20260507T00Z_MSC_GDPS_AirTemp_IsbL-0600_LatLon0.15_PT108H.grib2 2026-05-07 04:34 902K
20260507T00Z_MSC_GDPS_AirTemp_IsbL-0650_LatLon0.15_PT108H.grib2 2026-05-07 04:34 935K
20260507T00Z_MSC_GDPS_AirTemp_IsbL-0700_LatLon0.15_PT108H.grib2 2026-05-07 04:34 964K
20260507T00Z_MSC_GDPS_AirTemp_IsbL-0750_LatLon0.15_PT108H.grib2 2026-05-07 04:34 1.0M
20260507T00Z_MSC_GDPS_AirTemp_IsbL-0800_LatLon0.15_PT108H.grib2 2026-05-07 04:34 1.1M
20260507T00Z_MSC_GDPS_AirTemp_IsbL-0850_LatLon0.15_PT108H.grib2 2026-05-07 04:34 1.1M
20260507T00Z_MSC_GDPS_AirTemp_IsbL-0875_LatLon0.15_PT108H.grib2 2026-05-07 04:34 1.2M
20260507T00Z_MSC_GDPS_AirTemp_IsbL-0900_LatLon0.15_PT108H.grib2 2026-05-07 04:34 1.1M
20260507T00Z_MSC_GDPS_AirTemp_IsbL-0925_LatLon0.15_PT108H.grib2 2026-05-07 04:34 1.1M
20260507T00Z_MSC_GDPS_AirTemp_IsbL-0950_LatLon0.15_PT108H.grib2 2026-05-07 04:34 1.1M
20260507T00Z_MSC_GDPS_AirTemp_IsbL-0970_LatLon0.15_PT108H.grib2 2026-05-07 04:34 1.1M
20260507T00Z_MSC_GDPS_AirTemp_IsbL-0985_LatLon0.15_PT108H.grib2 2026-05-07 04:34 1.1M
20260507T00Z_MSC_GDPS_AirTemp_IsbL-1000_LatLon0.15_PT108H.grib2 2026-05-07 04:34 1.1M
20260507T00Z_MSC_GDPS_AirTemp_IsbL-1015_LatLon0.15_PT108H.grib2 2026-05-07 04:34 1.1M
20260507T00Z_MSC_GDPS_Albedo_Sfc_LatLon0.15_PT108H.grib2 2026-05-07 04:34 242K
20260507T00Z_MSC_GDPS_CAPE_Sfc_LatLon0.15_PT108H.grib2 2026-05-07 04:34 4.0M
20260507T00Z_MSC_GDPS_CIN_Sfc_LatLon0.15_PT108H.grib2 2026-05-07 04:34 2.9M
20260507T00Z_MSC_GDPS_CloudWater_EAtm_LatLon0.15_PT108H.grib2 2026-05-07 04:34 546K
20260507T00Z_MSC_GDPS_ConvectivePrecip-Accum_Sfc_LatLon0.15_PT108H.grib2 2026-05-07 04:34 3.4M
20260507T00Z_MSC_GDPS_DewPointDepression_AGL-2m_LatLon0.15_PT108H.grib2 2026-05-07 04:34 756K
20260507T00Z_MSC_GDPS_DewPointDepression_IsbL-0010_LatLon0.15_PT108H.grib2 2026-05-07 04:34 90K
20260507T00Z_MSC_GDPS_DewPointDepression_IsbL-0020_LatLon0.15_PT108H.grib2 2026-05-07 04:34 88K
20260507T00Z_MSC_GDPS_DewPointDepression_IsbL-0030_LatLon0.15_PT108H.grib2 2026-05-07 04:34 105K
20260507T00Z_MSC_GDPS_DewPointDepression_IsbL-0050_LatLon0.15_PT108H.grib2 2026-05-07 04:34 378K
20260507T00Z_MSC_GDPS_DewPointDepression_IsbL-0100_LatLon0.15_PT108H.grib2 2026-05-07 04:34 387K
20260507T00Z_MSC_GDPS_DewPointDepression_IsbL-0150_LatLon0.15_PT108H.grib2 2026-05-07 04:34 500K
20260507T00Z_MSC_GDPS_DewPointDepression_IsbL-0175_LatLon0.15_PT108H.grib2 2026-05-07 04:34 589K
20260507T00Z_MSC_GDPS_DewPointDepression_IsbL-0200_LatLon0.15_PT108H.grib2 2026-05-07 04:34 689K
20260507T00Z_MSC_GDPS_DewPointDepression_IsbL-0225_LatLon0.15_PT108H.grib2 2026-05-07 04:34 781K
20260507T00Z_MSC_GDPS_DewPointDepression_IsbL-0250_LatLon0.15_PT108H.grib2 2026-05-07 04:34 879K
20260507T00Z_MSC_GDPS_DewPointDepression_IsbL-0275_LatLon0.15_PT108H.grib2 2026-05-07 04:34 904K
20260507T00Z_MSC_GDPS_DewPointDepression_IsbL-0300_LatLon0.15_PT108H.grib2 2026-05-07 04:34 942K
20260507T00Z_MSC_GDPS_DewPointDepression_IsbL-0350_LatLon0.15_PT108H.grib2 2026-05-07 04:34 969K
20260507T00Z_MSC_GDPS_DewPointDepression_IsbL-0400_LatLon0.15_PT108H.grib2 2026-05-07 04:34 1.0M
20260507T00Z_MSC_GDPS_DewPointDepression_IsbL-0450_LatLon0.15_PT108H.grib2 2026-05-07 04:34 1.0M
20260507T00Z_MSC_GDPS_DewPointDepression_IsbL-0500_LatLon0.15_PT108H.grib2 2026-05-07 04:34 1.0M
20260507T00Z_MSC_GDPS_DewPointDepression_IsbL-0550_LatLon0.15_PT108H.grib2 2026-05-07 04:34 1.0M
20260507T00Z_MSC_GDPS_DewPointDepression_IsbL-0600_LatLon0.15_PT108H.grib2 2026-05-07 04:34 1.1M
20260507T00Z_MSC_GDPS_DewPointDepression_IsbL-0650_LatLon0.15_PT108H.grib2 2026-05-07 04:34 1.1M
20260507T00Z_MSC_GDPS_DewPointDepression_IsbL-0700_LatLon0.15_PT108H.grib2 2026-05-07 04:34 1.1M
20260507T00Z_MSC_GDPS_DewPointDepression_IsbL-0750_LatLon0.15_PT108H.grib2 2026-05-07 04:34 1.1M
20260507T00Z_MSC_GDPS_DewPointDepression_IsbL-0800_LatLon0.15_PT108H.grib2 2026-05-07 04:34 1.2M
20260507T00Z_MSC_GDPS_DewPointDepression_IsbL-0850_LatLon0.15_PT108H.grib2 2026-05-07 04:34 1.1M
20260507T00Z_MSC_GDPS_DewPointDepression_IsbL-0875_LatLon0.15_PT108H.grib2 2026-05-07 04:34 1.1M
20260507T00Z_MSC_GDPS_DewPointDepression_IsbL-0900_LatLon0.15_PT108H.grib2 2026-05-07 04:34 1.0M
20260507T00Z_MSC_GDPS_DewPointDepression_IsbL-0925_LatLon0.15_PT108H.grib2 2026-05-07 04:34 1.0M
20260507T00Z_MSC_GDPS_DewPointDepression_IsbL-0950_LatLon0.15_PT108H.grib2 2026-05-07 04:34 1.0M
20260507T00Z_MSC_GDPS_DewPointDepression_IsbL-0970_LatLon0.15_PT108H.grib2 2026-05-07 04:34 1.0M
20260507T00Z_MSC_GDPS_DewPointDepression_IsbL-0985_LatLon0.15_PT108H.grib2 2026-05-07 04:34 969K
20260507T00Z_MSC_GDPS_DewPointDepression_IsbL-1000_LatLon0.15_PT108H.grib2 2026-05-07 04:34 955K
20260507T00Z_MSC_GDPS_DewPointDepression_IsbL-1015_LatLon0.15_PT108H.grib2 2026-05-07 04:34 897K
20260507T00Z_MSC_GDPS_DewPoint_AGL-2m_LatLon0.15_PT108H.grib2 2026-05-07 04:34 607K
20260507T00Z_MSC_GDPS_DownwardLongwaveRadiationFlux-Accum_Sfc_LatLon0.15_PT108H.grib2 2026-05-07 04:34 782K
20260507T00Z_MSC_GDPS_DownwardShortwaveRadiationFlux-Accum_NTAtm_LatLon0.15_PT108H.grib2 2026-05-07 04:34 289K
20260507T00Z_MSC_GDPS_DownwardShortwaveRadiationFlux-Accum_Sfc_LatLon0.15_PT108H.grib2 2026-05-07 04:34 1.0M
20260507T00Z_MSC_GDPS_FreezingRain-Accum12h_Sfc_LatLon0.15_PT108H.grib2 2026-05-07 04:34 79K
20260507T00Z_MSC_GDPS_FreezingRain-Accum1h_Sfc_LatLon0.15_PT108H.grib2 2026-05-07 04:34 56K
20260507T00Z_MSC_GDPS_FreezingRain-Accum24h_Sfc_LatLon0.15_PT108H.grib2 2026-05-07 04:34 120K
20260507T00Z_MSC_GDPS_FreezingRain-Accum3h_Sfc_LatLon0.15_PT108H.grib2 2026-05-07 04:34 65K
20260507T00Z_MSC_GDPS_FreezingRain-Accum6h_Sfc_LatLon0.15_PT108H.grib2 2026-05-07 04:34 92K
20260507T00Z_MSC_GDPS_FreezingRain-Accum_Sfc_LatLon0.15_PT108H.grib2 2026-05-07 04:34 296K
20260507T00Z_MSC_GDPS_GeopotentialHeight_IsbL-0001_LatLon0.15_PT108H.grib2 2026-05-07 04:34 443K
20260507T00Z_MSC_GDPS_GeopotentialHeight_IsbL-0005_LatLon0.15_PT108H.grib2 2026-05-07 04:34 483K
20260507T00Z_MSC_GDPS_GeopotentialHeight_IsbL-0010_LatLon0.15_PT108H.grib2 2026-05-07 04:34 465K
20260507T00Z_MSC_GDPS_GeopotentialHeight_IsbL-0020_LatLon0.15_PT108H.grib2 2026-05-07 04:34 401K
20260507T00Z_MSC_GDPS_GeopotentialHeight_IsbL-0030_LatLon0.15_PT108H.grib2 2026-05-07 04:34 400K
20260507T00Z_MSC_GDPS_GeopotentialHeight_IsbL-0050_LatLon0.15_PT108H.grib2 2026-05-07 04:34 560K
20260507T00Z_MSC_GDPS_GeopotentialHeight_IsbL-0100_LatLon0.15_PT108H.grib2 2026-05-07 04:34 605K
20260507T00Z_MSC_GDPS_GeopotentialHeight_IsbL-0150_LatLon0.15_PT108H.grib2 2026-05-07 04:34 624K
20260507T00Z_MSC_GDPS_GeopotentialHeight_IsbL-0175_LatLon0.15_PT108H.grib2 2026-05-07 04:34 628K
20260507T00Z_MSC_GDPS_GeopotentialHeight_IsbL-0200_LatLon0.15_PT108H.grib2 2026-05-07 04:34 631K
20260507T00Z_MSC_GDPS_GeopotentialHeight_IsbL-0225_LatLon0.15_PT108H.grib2 2026-05-07 04:34 628K
20260507T00Z_MSC_GDPS_GeopotentialHeight_IsbL-0250_LatLon0.15_PT108H.grib2 2026-05-07 04:34 640K
20260507T00Z_MSC_GDPS_GeopotentialHeight_IsbL-0275_LatLon0.15_PT108H.grib2 2026-05-07 04:34 640K
20260507T00Z_MSC_GDPS_GeopotentialHeight_IsbL-0300_LatLon0.15_PT108H.grib2 2026-05-07 04:34 633K
20260507T00Z_MSC_GDPS_GeopotentialHeight_IsbL-0350_LatLon0.15_PT108H.grib2 2026-05-07 04:34 632K
20260507T00Z_MSC_GDPS_GeopotentialHeight_IsbL-0400_LatLon0.15_PT108H.grib2 2026-05-07 04:34 621K
20260507T00Z_MSC_GDPS_GeopotentialHeight_IsbL-0450_LatLon0.15_PT108H.grib2 2026-05-07 04:34 612K
20260507T00Z_MSC_GDPS_GeopotentialHeight_IsbL-0500_LatLon0.15_PT108H.grib2 2026-05-07 04:34 602K
20260507T00Z_MSC_GDPS_GeopotentialHeight_IsbL-0550_LatLon0.15_PT108H.grib2 2026-05-07 04:34 529K
20260507T00Z_MSC_GDPS_GeopotentialHeight_IsbL-0600_LatLon0.15_PT108H.grib2 2026-05-07 04:34 527K
20260507T00Z_MSC_GDPS_GeopotentialHeight_IsbL-0650_LatLon0.15_PT108H.grib2 2026-05-07 04:34 697K
20260507T00Z_MSC_GDPS_GeopotentialHeight_IsbL-0700_LatLon0.15_PT108H.grib2 2026-05-07 04:34 700K
20260507T00Z_MSC_GDPS_GeopotentialHeight_IsbL-0750_LatLon0.15_PT108H.grib2 2026-05-07 04:34 704K
20260507T00Z_MSC_GDPS_GeopotentialHeight_IsbL-0800_LatLon0.15_PT108H.grib2 2026-05-07 04:34 714K
20260507T00Z_MSC_GDPS_GeopotentialHeight_IsbL-0850_LatLon0.15_PT108H.grib2 2026-05-07 04:34 719K
20260507T00Z_MSC_GDPS_GeopotentialHeight_IsbL-0875_LatLon0.15_PT108H.grib2 2026-05-07 04:34 722K
20260507T00Z_MSC_GDPS_GeopotentialHeight_IsbL-0900_LatLon0.15_PT108H.grib2 2026-05-07 04:34 732K
20260507T00Z_MSC_GDPS_GeopotentialHeight_IsbL-0925_LatLon0.15_PT108H.grib2 2026-05-07 04:34 735K
20260507T00Z_MSC_GDPS_GeopotentialHeight_IsbL-0950_LatLon0.15_PT108H.grib2 2026-05-07 04:34 745K
20260507T00Z_MSC_GDPS_GeopotentialHeight_IsbL-0970_LatLon0.15_PT108H.grib2 2026-05-07 04:34 755K
20260507T00Z_MSC_GDPS_GeopotentialHeight_IsbL-0985_LatLon0.15_PT108H.grib2 2026-05-07 04:34 771K
20260507T00Z_MSC_GDPS_GeopotentialHeight_IsbL-1000_LatLon0.15_PT108H.grib2 2026-05-07 04:34 793K
20260507T00Z_MSC_GDPS_GeopotentialHeight_IsbL-1015_LatLon0.15_PT108H.grib2 2026-05-07 04:34 816K
20260507T00Z_MSC_GDPS_Humidex_Sfc_LatLon0.15_PT108H.grib2 2026-05-07 04:34 5.3M
20260507T00Z_MSC_GDPS_IcePellets-Accum12h_Sfc_LatLon0.15_PT108H.grib2 2026-05-07 04:34 71K
20260507T00Z_MSC_GDPS_IcePellets-Accum1h_Sfc_LatLon0.15_PT108H.grib2 2026-05-07 04:34 37K
20260507T00Z_MSC_GDPS_IcePellets-Accum24h_Sfc_LatLon0.15_PT108H.grib2 2026-05-07 04:34 79K
20260507T00Z_MSC_GDPS_IcePellets-Accum3h_Sfc_LatLon0.15_PT108H.grib2 2026-05-07 04:34 44K
20260507T00Z_MSC_GDPS_IcePellets-Accum6h_Sfc_LatLon0.15_PT108H.grib2 2026-05-07 04:34 53K
20260507T00Z_MSC_GDPS_IcePellets-Accum_Sfc_LatLon0.15_PT108H.grib2 2026-05-07 04:34 168K
20260507T00Z_MSC_GDPS_KIndex_Sfc_LatLon0.15_PT108H.grib2 2026-05-07 04:34 6.5M
20260507T00Z_MSC_GDPS_LatentHeatNetFlux_Sfc_LatLon0.15_PT108H.grib2 2026-05-07 04:34 555K
20260507T00Z_MSC_GDPS_LiftedIndex-MU-VT_IsbL-0500_LatLon0.15_PT108H.grib2 2026-05-07 04:34 5.4M
20260507T00Z_MSC_GDPS_NetLongwaveRadiationFlux-Accum_Sfc_LatLon0.15_PT108H.grib2 2026-05-07 04:34 1.0M
20260507T00Z_MSC_GDPS_NetShortwaveRadiationFlux-Accum_Sfc_LatLon0.15_PT108H.grib2 2026-05-07 04:34 962K
20260507T00Z_MSC_GDPS_O3MixingRatio_Sfc_LatLon0.15_PT108H.grib2 2026-05-07 04:56 1.9M
20260507T00Z_MSC_GDPS_O3_EAtm_LatLon0.15_PT108H.grib2 2026-05-07 04:56 2.5M
20260507T00Z_MSC_GDPS_PlanetaryBoundaryLayerHeight_Sfc_LatLon0.15_PT108H.grib2 2026-05-07 04:34 2.5M
20260507T00Z_MSC_GDPS_Precip-Accum12h_Sfc_LatLon0.15_PT108H.grib2 2026-05-07 04:34 3.8M
20260507T00Z_MSC_GDPS_Precip-Accum1h_Sfc_LatLon0.15_PT108H.grib2 2026-05-07 04:34 3.3M
20260507T00Z_MSC_GDPS_Precip-Accum24h_Sfc_LatLon0.15_PT108H.grib2 2026-05-07 04:34 4.0M
20260507T00Z_MSC_GDPS_Precip-Accum3h_Sfc_LatLon0.15_PT108H.grib2 2026-05-07 04:34 3.5M
20260507T00Z_MSC_GDPS_Precip-Accum6h_Sfc_LatLon0.15_PT108H.grib2 2026-05-07 04:34 3.6M
20260507T00Z_MSC_GDPS_Precip-Accum_Sfc_LatLon0.15_PT108H.grib2 2026-05-07 04:34 4.8M
20260507T00Z_MSC_GDPS_PrecipRate_Sfc_LatLon0.15_PT108H.grib2 2026-05-07 04:34 3.1M
20260507T00Z_MSC_GDPS_PrecipType-Instant_Sfc_LatLon0.15_PT108H.grib2 2026-05-07 04:34 1.6M
20260507T00Z_MSC_GDPS_Pressure_MSL_LatLon0.15_PT108H.grib2 2026-05-07 04:34 828K
20260507T00Z_MSC_GDPS_Pressure_PVU-1.5_LatLon0.15_PT108H.grib2 2026-05-07 04:34 5.8M
20260507T00Z_MSC_GDPS_Pressure_PVU-1_LatLon0.15_PT108H.grib2 2026-05-07 04:34 6.0M
20260507T00Z_MSC_GDPS_Pressure_PVU-2_LatLon0.15_PT108H.grib2 2026-05-07 04:34 6.0M
20260507T00Z_MSC_GDPS_Pressure_Sfc_LatLon0.15_PT108H.grib2 2026-05-07 04:34 1.1M
20260507T00Z_MSC_GDPS_RadiativeTemp_Sfc_LatLon0.15_PT108H.grib2 2026-05-07 04:34 493K
20260507T00Z_MSC_GDPS_Rain-Accum12h_Sfc_LatLon0.15_PT108H.grib2 2026-05-07 04:34 2.4M
20260507T00Z_MSC_GDPS_Rain-Accum1h_Sfc_LatLon0.15_PT108H.grib2 2026-05-07 04:34 1.7M
20260507T00Z_MSC_GDPS_Rain-Accum24h_Sfc_LatLon0.15_PT108H.grib2 2026-05-07 04:34 2.8M
20260507T00Z_MSC_GDPS_Rain-Accum3h_Sfc_LatLon0.15_PT108H.grib2 2026-05-07 04:34 1.7M
20260507T00Z_MSC_GDPS_Rain-Accum6h_Sfc_LatLon0.15_PT108H.grib2 2026-05-07 04:34 2.3M
20260507T00Z_MSC_GDPS_Rain-Accum_Sfc_LatLon0.15_PT108H.grib2 2026-05-07 04:34 3.7M
20260507T00Z_MSC_GDPS_RelativeHumidity_AGL-2m_LatLon0.15_PT108H.grib2 2026-05-07 04:34 1.1M
20260507T00Z_MSC_GDPS_RelativeHumidity_IsbL-0010_LatLon0.15_PT108H.grib2 2026-05-07 04:34 143K
20260507T00Z_MSC_GDPS_RelativeHumidity_IsbL-0020_LatLon0.15_PT108H.grib2 2026-05-07 04:34 171K
20260507T00Z_MSC_GDPS_RelativeHumidity_IsbL-0030_LatLon0.15_PT108H.grib2 2026-05-07 04:34 190K
20260507T00Z_MSC_GDPS_RelativeHumidity_IsbL-0050_LatLon0.15_PT108H.grib2 2026-05-07 04:34 338K
20260507T00Z_MSC_GDPS_RelativeHumidity_IsbL-0100_LatLon0.15_PT108H.grib2 2026-05-07 04:34 493K
20260507T00Z_MSC_GDPS_RelativeHumidity_IsbL-0150_LatLon0.15_PT108H.grib2 2026-05-07 04:34 674K
20260507T00Z_MSC_GDPS_RelativeHumidity_IsbL-0175_LatLon0.15_PT108H.grib2 2026-05-07 04:34 797K
20260507T00Z_MSC_GDPS_RelativeHumidity_IsbL-0200_LatLon0.15_PT108H.grib2 2026-05-07 04:34 712K
20260507T00Z_MSC_GDPS_RelativeHumidity_IsbL-0225_LatLon0.15_PT108H.grib2 2026-05-07 04:34 796K
20260507T00Z_MSC_GDPS_RelativeHumidity_IsbL-0250_LatLon0.15_PT108H.grib2 2026-05-07 04:34 873K
20260507T00Z_MSC_GDPS_RelativeHumidity_IsbL-0275_LatLon0.15_PT108H.grib2 2026-05-07 04:34 894K
20260507T00Z_MSC_GDPS_RelativeHumidity_IsbL-0300_LatLon0.15_PT108H.grib2 2026-05-07 04:34 934K
20260507T00Z_MSC_GDPS_RelativeHumidity_IsbL-0350_LatLon0.15_PT108H.grib2 2026-05-07 04:34 950K
20260507T00Z_MSC_GDPS_RelativeHumidity_IsbL-0400_LatLon0.15_PT108H.grib2 2026-05-07 04:34 973K
20260507T00Z_MSC_GDPS_RelativeHumidity_IsbL-0450_LatLon0.15_PT108H.grib2 2026-05-07 04:34 1.0M
20260507T00Z_MSC_GDPS_RelativeHumidity_IsbL-0500_LatLon0.15_PT108H.grib2 2026-05-07 04:34 1.0M
20260507T00Z_MSC_GDPS_RelativeHumidity_IsbL-0550_LatLon0.15_PT108H.grib2 2026-05-07 04:34 1.1M
20260507T00Z_MSC_GDPS_RelativeHumidity_IsbL-0600_LatLon0.15_PT108H.grib2 2026-05-07 04:34 1.0M
20260507T00Z_MSC_GDPS_RelativeHumidity_IsbL-0650_LatLon0.15_PT108H.grib2 2026-05-07 04:34 1.1M
20260507T00Z_MSC_GDPS_RelativeHumidity_IsbL-0700_LatLon0.15_PT108H.grib2 2026-05-07 04:34 1.1M
20260507T00Z_MSC_GDPS_RelativeHumidity_IsbL-0750_LatLon0.15_PT108H.grib2 2026-05-07 04:34 1.2M
20260507T00Z_MSC_GDPS_RelativeHumidity_IsbL-0800_LatLon0.15_PT108H.grib2 2026-05-07 04:34 1.3M
20260507T00Z_MSC_GDPS_RelativeHumidity_IsbL-0850_LatLon0.15_PT108H.grib2 2026-05-07 04:34 1.3M
20260507T00Z_MSC_GDPS_RelativeHumidity_IsbL-0875_LatLon0.15_PT108H.grib2 2026-05-07 04:34 1.2M
20260507T00Z_MSC_GDPS_RelativeHumidity_IsbL-0900_LatLon0.15_PT108H.grib2 2026-05-07 04:34 1.2M
20260507T00Z_MSC_GDPS_RelativeHumidity_IsbL-0925_LatLon0.15_PT108H.grib2 2026-05-07 04:34 1.2M
20260507T00Z_MSC_GDPS_RelativeHumidity_IsbL-0950_LatLon0.15_PT108H.grib2 2026-05-07 04:34 1.2M
20260507T00Z_MSC_GDPS_RelativeHumidity_IsbL-0970_LatLon0.15_PT108H.grib2 2026-05-07 04:34 1.1M
20260507T00Z_MSC_GDPS_RelativeHumidity_IsbL-0985_LatLon0.15_PT108H.grib2 2026-05-07 04:34 1.1M
20260507T00Z_MSC_GDPS_RelativeHumidity_IsbL-1000_LatLon0.15_PT108H.grib2 2026-05-07 04:34 1.1M
20260507T00Z_MSC_GDPS_RelativeHumidity_IsbL-1015_LatLon0.15_PT108H.grib2 2026-05-07 04:34 1.0M
20260507T00Z_MSC_GDPS_RelativeVorticity_IsbL-0200_LatLon0.15_PT108H.grib2 2026-05-07 04:34 1.2M
20260507T00Z_MSC_GDPS_RelativeVorticity_IsbL-0250_LatLon0.15_PT108H.grib2 2026-05-07 04:34 1.3M
20260507T00Z_MSC_GDPS_RelativeVorticity_IsbL-0500_LatLon0.15_PT108H.grib2 2026-05-07 04:34 1.2M
20260507T00Z_MSC_GDPS_RelativeVorticity_IsbL-0700_LatLon0.15_PT108H.grib2 2026-05-07 04:34 1.3M
20260507T00Z_MSC_GDPS_RelativeVorticity_IsbL-0850_LatLon0.15_PT108H.grib2 2026-05-07 04:34 1.6M
20260507T00Z_MSC_GDPS_Runoff-Accum_Sfc_LatLon0.15_PT108H.grib2 2026-05-07 04:34 96K
20260507T00Z_MSC_GDPS_SensibleHeatNetFlux_Sfc_LatLon0.15_PT108H.grib2 2026-05-07 04:34 653K
20260507T00Z_MSC_GDPS_ShowalterIndex_IsbL-0500_LatLon0.15_PT108H.grib2 2026-05-07 04:34 6.2M
20260507T00Z_MSC_GDPS_Snow-Accum12h_Sfc_LatLon0.15_PT108H.grib2 2026-05-07 04:34 1.5M
20260507T00Z_MSC_GDPS_Snow-Accum1h_Sfc_LatLon0.15_PT108H.grib2 2026-05-07 04:34 1.2M
20260507T00Z_MSC_GDPS_Snow-Accum24h_Sfc_LatLon0.15_PT108H.grib2 2026-05-07 04:34 1.5M
20260507T00Z_MSC_GDPS_Snow-Accum3h_Sfc_LatLon0.15_PT108H.grib2 2026-05-07 04:34 1.0M
20260507T00Z_MSC_GDPS_Snow-Accum6h_Sfc_LatLon0.15_PT108H.grib2 2026-05-07 04:34 1.3M
20260507T00Z_MSC_GDPS_Snow-Accum_Sfc_LatLon0.15_PT108H.grib2 2026-05-07 04:34 2.1M
20260507T00Z_MSC_GDPS_SnowDensity_Sfc_LatLon0.15_PT108H.grib2 2026-05-07 04:34 258K
20260507T00Z_MSC_GDPS_SnowDepth_Sfc_LatLon0.15_PT108H.grib2 2026-05-07 04:34 1.7M
20260507T00Z_MSC_GDPS_SoilTemp_DBS-0to10cm_LatLon0.15_PT108H.grib2 2026-05-07 04:34 512K
20260507T00Z_MSC_GDPS_SoilTemp_Sfc_LatLon0.15_PT108H.grib2 2026-05-07 04:34 590K
20260507T00Z_MSC_GDPS_SoilVolumetricIceContent_Sfc_LatLon0.15_PT108H.grib2 2026-05-07 04:34 176K
20260507T00Z_MSC_GDPS_SoilVolumetricWaterContent_DBS-0to10cm_LatLon0.15_PT108H.grib2 2026-05-07 04:34 601K
20260507T00Z_MSC_GDPS_SoilVolumetricWaterContent_DBS-0to1cm_LatLon0.15_PT108H.grib2 2026-05-07 04:34 646K
20260507T00Z_MSC_GDPS_SpecificHumidity_AGL-120m_LatLon0.15_PT108H.grib2 2026-05-07 04:34 1.1M
20260507T00Z_MSC_GDPS_SpecificHumidity_AGL-2m_LatLon0.15_PT108H.grib2 2026-05-07 04:34 1.2M
20260507T00Z_MSC_GDPS_SpecificHumidity_AGL-40m_LatLon0.15_PT108H.grib2 2026-05-07 04:34 1.1M
20260507T00Z_MSC_GDPS_SpecificHumidity_AGL-80m_LatLon0.15_PT108H.grib2 2026-05-07 04:34 1.1M
20260507T00Z_MSC_GDPS_SpecificHumidity_IsbL-0001_LatLon0.15_PT108H.grib2 2026-05-07 04:34 1.3M
20260507T00Z_MSC_GDPS_SpecificHumidity_IsbL-0005_LatLon0.15_PT108H.grib2 2026-05-07 04:34 1.2M
20260507T00Z_MSC_GDPS_SpecificHumidity_IsbL-0010_LatLon0.15_PT108H.grib2 2026-05-07 04:34 1.2M
20260507T00Z_MSC_GDPS_SpecificHumidity_IsbL-0020_LatLon0.15_PT108H.grib2 2026-05-07 04:34 1.3M
20260507T00Z_MSC_GDPS_SpecificHumidity_IsbL-0030_LatLon0.15_PT108H.grib2 2026-05-07 04:34 1.2M
20260507T00Z_MSC_GDPS_SpecificHumidity_IsbL-0050_LatLon0.15_PT108H.grib2 2026-05-07 04:34 1.6M
20260507T00Z_MSC_GDPS_SpecificHumidity_IsbL-0100_LatLon0.15_PT108H.grib2 2026-05-07 04:34 1.2M
20260507T00Z_MSC_GDPS_SpecificHumidity_IsbL-0150_LatLon0.15_PT108H.grib2 2026-05-07 04:34 1.3M
20260507T00Z_MSC_GDPS_SpecificHumidity_IsbL-0175_LatLon0.15_PT108H.grib2 2026-05-07 04:34 1.3M
20260507T00Z_MSC_GDPS_SpecificHumidity_IsbL-0200_LatLon0.15_PT108H.grib2 2026-05-07 04:34 1.1M
20260507T00Z_MSC_GDPS_SpecificHumidity_IsbL-0225_LatLon0.15_PT108H.grib2 2026-05-07 04:34 1.3M
20260507T00Z_MSC_GDPS_SpecificHumidity_IsbL-0250_LatLon0.15_PT108H.grib2 2026-05-07 04:34 1.2M
20260507T00Z_MSC_GDPS_SpecificHumidity_IsbL-0275_LatLon0.15_PT108H.grib2 2026-05-07 04:34 1.1M
20260507T00Z_MSC_GDPS_SpecificHumidity_IsbL-0300_LatLon0.15_PT108H.grib2 2026-05-07 04:34 1.3M
20260507T00Z_MSC_GDPS_SpecificHumidity_IsbL-0350_LatLon0.15_PT108H.grib2 2026-05-07 04:34 1.3M
20260507T00Z_MSC_GDPS_SpecificHumidity_IsbL-0400_LatLon0.15_PT108H.grib2 2026-05-07 04:34 1.4M
20260507T00Z_MSC_GDPS_SpecificHumidity_IsbL-0450_LatLon0.15_PT108H.grib2 2026-05-07 04:34 1.3M
20260507T00Z_MSC_GDPS_SpecificHumidity_IsbL-0500_LatLon0.15_PT108H.grib2 2026-05-07 04:34 1.5M
20260507T00Z_MSC_GDPS_SpecificHumidity_IsbL-0550_LatLon0.15_PT108H.grib2 2026-05-07 04:34 1.6M
20260507T00Z_MSC_GDPS_SpecificHumidity_IsbL-0600_LatLon0.15_PT108H.grib2 2026-05-07 04:34 1.5M
20260507T00Z_MSC_GDPS_SpecificHumidity_IsbL-0650_LatLon0.15_PT108H.grib2 2026-05-07 04:34 1.6M
20260507T00Z_MSC_GDPS_SpecificHumidity_IsbL-0700_LatLon0.15_PT108H.grib2 2026-05-07 04:34 1.7M
20260507T00Z_MSC_GDPS_SpecificHumidity_IsbL-0750_LatLon0.15_PT108H.grib2 2026-05-07 04:34 1.8M
20260507T00Z_MSC_GDPS_SpecificHumidity_IsbL-0800_LatLon0.15_PT108H.grib2 2026-05-07 04:34 1.9M
20260507T00Z_MSC_GDPS_SpecificHumidity_IsbL-0850_LatLon0.15_PT108H.grib2 2026-05-07 04:34 2.0M
20260507T00Z_MSC_GDPS_SpecificHumidity_IsbL-0875_LatLon0.15_PT108H.grib2 2026-05-07 04:34 2.0M
20260507T00Z_MSC_GDPS_SpecificHumidity_IsbL-0900_LatLon0.15_PT108H.grib2 2026-05-07 04:34 1.6M
20260507T00Z_MSC_GDPS_SpecificHumidity_IsbL-0925_LatLon0.15_PT108H.grib2 2026-05-07 04:34 1.6M
20260507T00Z_MSC_GDPS_SpecificHumidity_IsbL-0950_LatLon0.15_PT108H.grib2 2026-05-07 04:34 1.6M
20260507T00Z_MSC_GDPS_SpecificHumidity_IsbL-0970_LatLon0.15_PT108H.grib2 2026-05-07 04:34 1.6M
20260507T00Z_MSC_GDPS_SpecificHumidity_IsbL-0985_LatLon0.15_PT108H.grib2 2026-05-07 04:34 1.5M
20260507T00Z_MSC_GDPS_SpecificHumidity_IsbL-1000_LatLon0.15_PT108H.grib2 2026-05-07 04:34 1.5M
20260507T00Z_MSC_GDPS_SpecificHumidity_IsbL-1015_LatLon0.15_PT108H.grib2 2026-05-07 04:34 1.5M
20260507T00Z_MSC_GDPS_SpecificHumidity_Sfc_LatLon0.15_PT108H.grib2 2026-05-07 04:34 685K
20260507T00Z_MSC_GDPS_Thickness_IsbL-0850to0700_LatLon0.15_PT108H.grib2 2026-05-07 04:34 480K
20260507T00Z_MSC_GDPS_Thickness_IsbL-1000to0500_LatLon0.15_PT108H.grib2 2026-05-07 04:34 383K
20260507T00Z_MSC_GDPS_Thickness_IsbL-1000to0850_LatLon0.15_PT108H.grib2 2026-05-07 04:34 494K
20260507T00Z_MSC_GDPS_TotalCloudCover_Sfc_LatLon0.15_PT108H.grib2 2026-05-07 04:34 818K
20260507T00Z_MSC_GDPS_TotalTotalsIndex_Sfc_LatLon0.15_PT108H.grib2 2026-05-07 04:34 6.2M
20260507T00Z_MSC_GDPS_UVIndex-ClearSky_Sfc_LatLon0.15_PT108H.grib2 2026-05-07 04:56 1.0M
20260507T00Z_MSC_GDPS_UVIndex_Sfc_LatLon0.15_PT108H.grib2 2026-05-07 04:56 1.5M
20260507T00Z_MSC_GDPS_UpwardLongwaveRadiationFlux_NTAtm_LatLon0.15_PT108H.grib2 2026-05-07 04:34 846K
20260507T00Z_MSC_GDPS_VerticalVelocity_IsbL-0200_LatLon0.15_PT108H.grib2 2026-05-07 04:34 930K
20260507T00Z_MSC_GDPS_VerticalVelocity_IsbL-0250_LatLon0.15_PT108H.grib2 2026-05-07 04:34 851K
20260507T00Z_MSC_GDPS_VerticalVelocity_IsbL-0500_LatLon0.15_PT108H.grib2 2026-05-07 04:34 1.0M
20260507T00Z_MSC_GDPS_VerticalVelocity_IsbL-0600_LatLon0.15_PT108H.grib2 2026-05-07 04:34 1.1M
20260507T00Z_MSC_GDPS_VerticalVelocity_IsbL-0700_LatLon0.15_PT108H.grib2 2026-05-07 04:34 1.2M
20260507T00Z_MSC_GDPS_VerticalVelocity_IsbL-0850_LatLon0.15_PT108H.grib2 2026-05-07 04:34 1.4M
20260507T00Z_MSC_GDPS_WindChill_Sfc_LatLon0.15_PT108H.grib2 2026-05-07 04:34 5.3M
20260507T00Z_MSC_GDPS_WindDir_AGL-10m_LatLon0.15_PT108H.grib2 2026-05-07 04:34 1.3M
20260507T00Z_MSC_GDPS_WindDir_AGL-120m_LatLon0.15_PT108H.grib2 2026-05-07 04:34 1.3M
20260507T00Z_MSC_GDPS_WindDir_AGL-40m_LatLon0.15_PT108H.grib2 2026-05-07 04:34 1.4M
20260507T00Z_MSC_GDPS_WindDir_AGL-80m_LatLon0.15_PT108H.grib2 2026-05-07 04:34 1.3M
20260507T00Z_MSC_GDPS_WindDir_IsbL-0001_LatLon0.15_PT108H.grib2 2026-05-07 04:34 651K
20260507T00Z_MSC_GDPS_WindDir_IsbL-0005_LatLon0.15_PT108H.grib2 2026-05-07 04:34 799K
20260507T00Z_MSC_GDPS_WindDir_IsbL-0010_LatLon0.15_PT108H.grib2 2026-05-07 04:34 847K
20260507T00Z_MSC_GDPS_WindDir_IsbL-0020_LatLon0.15_PT108H.grib2 2026-05-07 04:34 954K
20260507T00Z_MSC_GDPS_WindDir_IsbL-0030_LatLon0.15_PT108H.grib2 2026-05-07 04:34 972K
20260507T00Z_MSC_GDPS_WindDir_IsbL-0050_LatLon0.15_PT108H.grib2 2026-05-07 04:34 953K
20260507T00Z_MSC_GDPS_WindDir_IsbL-0100_LatLon0.15_PT108H.grib2 2026-05-07 04:34 1.0M
20260507T00Z_MSC_GDPS_WindDir_IsbL-0150_LatLon0.15_PT108H.grib2 2026-05-07 04:34 1.0M
20260507T00Z_MSC_GDPS_WindDir_IsbL-0175_LatLon0.15_PT108H.grib2 2026-05-07 04:34 1.1M
20260507T00Z_MSC_GDPS_WindDir_IsbL-0200_LatLon0.15_PT108H.grib2 2026-05-07 04:34 1.1M
20260507T00Z_MSC_GDPS_WindDir_IsbL-0225_LatLon0.15_PT108H.grib2 2026-05-07 04:34 1.1M
20260507T00Z_MSC_GDPS_WindDir_IsbL-0250_LatLon0.15_PT108H.grib2 2026-05-07 04:34 1.1M
20260507T00Z_MSC_GDPS_WindDir_IsbL-0275_LatLon0.15_PT108H.grib2 2026-05-07 04:34 1.2M
20260507T00Z_MSC_GDPS_WindDir_IsbL-0300_LatLon0.15_PT108H.grib2 2026-05-07 04:34 1.2M
20260507T00Z_MSC_GDPS_WindDir_IsbL-0350_LatLon0.15_PT108H.grib2 2026-05-07 04:34 1.2M
20260507T00Z_MSC_GDPS_WindDir_IsbL-0400_LatLon0.15_PT108H.grib2 2026-05-07 04:34 1.3M
20260507T00Z_MSC_GDPS_WindDir_IsbL-0450_LatLon0.15_PT108H.grib2 2026-05-07 04:34 1.3M
20260507T00Z_MSC_GDPS_WindDir_IsbL-0500_LatLon0.15_PT108H.grib2 2026-05-07 04:34 1.4M
20260507T00Z_MSC_GDPS_WindDir_IsbL-0550_LatLon0.15_PT108H.grib2 2026-05-07 04:34 1.4M
20260507T00Z_MSC_GDPS_WindDir_IsbL-0600_LatLon0.15_PT108H.grib2 2026-05-07 04:34 1.5M
20260507T00Z_MSC_GDPS_WindDir_IsbL-0650_LatLon0.15_PT108H.grib2 2026-05-07 04:34 1.5M
20260507T00Z_MSC_GDPS_WindDir_IsbL-0700_LatLon0.15_PT108H.grib2 2026-05-07 04:34 1.6M
20260507T00Z_MSC_GDPS_WindDir_IsbL-0750_LatLon0.15_PT108H.grib2 2026-05-07 04:34 1.7M
20260507T00Z_MSC_GDPS_WindDir_IsbL-0800_LatLon0.15_PT108H.grib2 2026-05-07 04:34 1.8M
20260507T00Z_MSC_GDPS_WindDir_IsbL-0850_LatLon0.15_PT108H.grib2 2026-05-07 04:34 1.9M
20260507T00Z_MSC_GDPS_WindDir_IsbL-0875_LatLon0.15_PT108H.grib2 2026-05-07 04:34 1.9M
20260507T00Z_MSC_GDPS_WindDir_IsbL-0900_LatLon0.15_PT108H.grib2 2026-05-07 04:34 1.9M
20260507T00Z_MSC_GDPS_WindDir_IsbL-0925_LatLon0.15_PT108H.grib2 2026-05-07 04:34 1.9M
20260507T00Z_MSC_GDPS_WindDir_IsbL-0950_LatLon0.15_PT108H.grib2 2026-05-07 04:34 1.9M
20260507T00Z_MSC_GDPS_WindDir_IsbL-0970_LatLon0.15_PT108H.grib2 2026-05-07 04:34 2.0M
20260507T00Z_MSC_GDPS_WindDir_IsbL-0985_LatLon0.15_PT108H.grib2 2026-05-07 04:34 2.0M
20260507T00Z_MSC_GDPS_WindDir_IsbL-1000_LatLon0.15_PT108H.grib2 2026-05-07 04:34 2.0M
20260507T00Z_MSC_GDPS_WindDir_IsbL-1015_LatLon0.15_PT108H.grib2 2026-05-07 04:34 2.0M
20260507T00Z_MSC_GDPS_WindGust-Max_AGL-10m_LatLon0.15_PT108H.grib2 2026-05-07 04:34 2.2M
20260507T00Z_MSC_GDPS_WindGust-Min_AGL-10m_LatLon0.15_PT108H.grib2 2026-05-07 04:34 2.2M
20260507T00Z_MSC_GDPS_WindGust_AGL-10m_LatLon0.15_PT108H.grib2 2026-05-07 04:34 2.2M
20260507T00Z_MSC_GDPS_WindSpeed_AGL-10m_LatLon0.15_PT108H.grib2 2026-05-07 04:34 1.1M
20260507T00Z_MSC_GDPS_WindSpeed_AGL-120m_LatLon0.15_PT108H.grib2 2026-05-07 04:34 1.2M
20260507T00Z_MSC_GDPS_WindSpeed_AGL-40m_LatLon0.15_PT108H.grib2 2026-05-07 04:34 1.2M
20260507T00Z_MSC_GDPS_WindSpeed_AGL-80m_LatLon0.15_PT108H.grib2 2026-05-07 04:34 1.2M
20260507T00Z_MSC_GDPS_WindSpeed_IsbL-0001_LatLon0.15_PT108H.grib2 2026-05-07 04:34 653K
20260507T00Z_MSC_GDPS_WindSpeed_IsbL-0005_LatLon0.15_PT108H.grib2 2026-05-07 04:34 693K
20260507T00Z_MSC_GDPS_WindSpeed_IsbL-0010_LatLon0.15_PT108H.grib2 2026-05-07 04:34 626K
20260507T00Z_MSC_GDPS_WindSpeed_IsbL-0020_LatLon0.15_PT108H.grib2 2026-05-07 04:34 666K
20260507T00Z_MSC_GDPS_WindSpeed_IsbL-0030_LatLon0.15_PT108H.grib2 2026-05-07 04:34 676K
20260507T00Z_MSC_GDPS_WindSpeed_IsbL-0050_LatLon0.15_PT108H.grib2 2026-05-07 04:34 898K
20260507T00Z_MSC_GDPS_WindSpeed_IsbL-0100_LatLon0.15_PT108H.grib2 2026-05-07 04:34 1.1M
20260507T00Z_MSC_GDPS_WindSpeed_IsbL-0150_LatLon0.15_PT108H.grib2 2026-05-07 04:34 1.0M
20260507T00Z_MSC_GDPS_WindSpeed_IsbL-0175_LatLon0.15_PT108H.grib2 2026-05-07 04:34 1.0M
20260507T00Z_MSC_GDPS_WindSpeed_IsbL-0200_LatLon0.15_PT108H.grib2 2026-05-07 04:34 1.0M
20260507T00Z_MSC_GDPS_WindSpeed_IsbL-0225_LatLon0.15_PT108H.grib2 2026-05-07 04:34 1.1M
20260507T00Z_MSC_GDPS_WindSpeed_IsbL-0250_LatLon0.15_PT108H.grib2 2026-05-07 04:34 1.1M
20260507T00Z_MSC_GDPS_WindSpeed_IsbL-0275_LatLon0.15_PT108H.grib2 2026-05-07 04:34 1.1M
20260507T00Z_MSC_GDPS_WindSpeed_IsbL-0300_LatLon0.15_PT108H.grib2 2026-05-07 04:34 1.1M
20260507T00Z_MSC_GDPS_WindSpeed_IsbL-0350_LatLon0.15_PT108H.grib2 2026-05-07 04:34 1.1M
20260507T00Z_MSC_GDPS_WindSpeed_IsbL-0400_LatLon0.15_PT108H.grib2 2026-05-07 04:34 1.1M
20260507T00Z_MSC_GDPS_WindSpeed_IsbL-0450_LatLon0.15_PT108H.grib2 2026-05-07 04:34 1.1M
20260507T00Z_MSC_GDPS_WindSpeed_IsbL-0500_LatLon0.15_PT108H.grib2 2026-05-07 04:34 1.1M
20260507T00Z_MSC_GDPS_WindSpeed_IsbL-0550_LatLon0.15_PT108H.grib2 2026-05-07 04:34 1.2M
20260507T00Z_MSC_GDPS_WindSpeed_IsbL-0600_LatLon0.15_PT108H.grib2 2026-05-07 04:34 1.1M
20260507T00Z_MSC_GDPS_WindSpeed_IsbL-0650_LatLon0.15_PT108H.grib2 2026-05-07 04:34 1.2M
20260507T00Z_MSC_GDPS_WindSpeed_IsbL-0700_LatLon0.15_PT108H.grib2 2026-05-07 04:34 1.2M
20260507T00Z_MSC_GDPS_WindSpeed_IsbL-0750_LatLon0.15_PT108H.grib2 2026-05-07 04:34 1.6M
20260507T00Z_MSC_GDPS_WindSpeed_IsbL-0800_LatLon0.15_PT108H.grib2 2026-05-07 04:34 1.7M
20260507T00Z_MSC_GDPS_WindSpeed_IsbL-0850_LatLon0.15_PT108H.grib2 2026-05-07 04:34 1.8M
20260507T00Z_MSC_GDPS_WindSpeed_IsbL-0875_LatLon0.15_PT108H.grib2 2026-05-07 04:34 1.8M
20260507T00Z_MSC_GDPS_WindSpeed_IsbL-0900_LatLon0.15_PT108H.grib2 2026-05-07 04:34 1.8M
20260507T00Z_MSC_GDPS_WindSpeed_IsbL-0925_LatLon0.15_PT108H.grib2 2026-05-07 04:34 1.8M
20260507T00Z_MSC_GDPS_WindSpeed_IsbL-0950_LatLon0.15_PT108H.grib2 2026-05-07 04:34 1.9M
20260507T00Z_MSC_GDPS_WindSpeed_IsbL-0970_LatLon0.15_PT108H.grib2 2026-05-07 04:34 1.9M
20260507T00Z_MSC_GDPS_WindSpeed_IsbL-0985_LatLon0.15_PT108H.grib2 2026-05-07 04:34 1.9M
20260507T00Z_MSC_GDPS_WindSpeed_IsbL-1000_LatLon0.15_PT108H.grib2 2026-05-07 04:34 1.9M
20260507T00Z_MSC_GDPS_WindSpeed_IsbL-1015_LatLon0.15_PT108H.grib2 2026-05-07 04:34 1.8M
20260507T00Z_MSC_GDPS_WindU_AGL-10m_LatLon0.15_PT108H.grib2 2026-05-07 04:34 1.3M
20260507T00Z_MSC_GDPS_WindU_AGL-120m_LatLon0.15_PT108H.grib2 2026-05-07 04:34 1.0M
20260507T00Z_MSC_GDPS_WindU_AGL-40m_LatLon0.15_PT108H.grib2 2026-05-07 04:34 1.0M
20260507T00Z_MSC_GDPS_WindU_AGL-80m_LatLon0.15_PT108H.grib2 2026-05-07 04:34 1.0M
20260507T00Z_MSC_GDPS_WindU_IsbL-0001_LatLon0.15_PT108H.grib2 2026-05-07 04:34 507K
20260507T00Z_MSC_GDPS_WindU_IsbL-0005_LatLon0.15_PT108H.grib2 2026-05-07 04:34 689K
20260507T00Z_MSC_GDPS_WindU_IsbL-0010_LatLon0.15_PT108H.grib2 2026-05-07 04:34 698K
20260507T00Z_MSC_GDPS_WindU_IsbL-0020_LatLon0.15_PT108H.grib2 2026-05-07 04:34 730K
20260507T00Z_MSC_GDPS_WindU_IsbL-0030_LatLon0.15_PT108H.grib2 2026-05-07 04:34 742K
20260507T00Z_MSC_GDPS_WindU_IsbL-0050_LatLon0.15_PT108H.grib2 2026-05-07 04:34 761K
20260507T00Z_MSC_GDPS_WindU_IsbL-0100_LatLon0.15_PT108H.grib2 2026-05-07 04:34 922K
20260507T00Z_MSC_GDPS_WindU_IsbL-0150_LatLon0.15_PT108H.grib2 2026-05-07 04:34 1.0M
20260507T00Z_MSC_GDPS_WindU_IsbL-0175_LatLon0.15_PT108H.grib2 2026-05-07 04:34 802K
20260507T00Z_MSC_GDPS_WindU_IsbL-0200_LatLon0.15_PT108H.grib2 2026-05-07 04:34 834K
20260507T00Z_MSC_GDPS_WindU_IsbL-0225_LatLon0.15_PT108H.grib2 2026-05-07 04:34 907K
20260507T00Z_MSC_GDPS_WindU_IsbL-0250_LatLon0.15_PT108H.grib2 2026-05-07 04:34 854K
20260507T00Z_MSC_GDPS_WindU_IsbL-0275_LatLon0.15_PT108H.grib2 2026-05-07 04:34 883K
20260507T00Z_MSC_GDPS_WindU_IsbL-0300_LatLon0.15_PT108H.grib2 2026-05-07 04:34 873K
20260507T00Z_MSC_GDPS_WindU_IsbL-0350_LatLon0.15_PT108H.grib2 2026-05-07 04:34 888K
20260507T00Z_MSC_GDPS_WindU_IsbL-0400_LatLon0.15_PT108H.grib2 2026-05-07 04:34 893K
20260507T00Z_MSC_GDPS_WindU_IsbL-0450_LatLon0.15_PT108H.grib2 2026-05-07 04:34 1.1M
20260507T00Z_MSC_GDPS_WindU_IsbL-0500_LatLon0.15_PT108H.grib2 2026-05-07 04:34 1.1M
20260507T00Z_MSC_GDPS_WindU_IsbL-0550_LatLon0.15_PT108H.grib2 2026-05-07 04:34 1.1M
20260507T00Z_MSC_GDPS_WindU_IsbL-0600_LatLon0.15_PT108H.grib2 2026-05-07 04:34 1.2M
20260507T00Z_MSC_GDPS_WindU_IsbL-0650_LatLon0.15_PT108H.grib2 2026-05-07 04:34 1.2M
20260507T00Z_MSC_GDPS_WindU_IsbL-0700_LatLon0.15_PT108H.grib2 2026-05-07 04:34 1.2M
20260507T00Z_MSC_GDPS_WindU_IsbL-0750_LatLon0.15_PT108H.grib2 2026-05-07 04:34 1.3M
20260507T00Z_MSC_GDPS_WindU_IsbL-0800_LatLon0.15_PT108H.grib2 2026-05-07 04:34 1.4M
20260507T00Z_MSC_GDPS_WindU_IsbL-0850_LatLon0.15_PT108H.grib2 2026-05-07 04:34 1.4M
20260507T00Z_MSC_GDPS_WindU_IsbL-0875_LatLon0.15_PT108H.grib2 2026-05-07 04:34 1.4M
20260507T00Z_MSC_GDPS_WindU_IsbL-0900_LatLon0.15_PT108H.grib2 2026-05-07 04:34 1.5M
20260507T00Z_MSC_GDPS_WindU_IsbL-0925_LatLon0.15_PT108H.grib2 2026-05-07 04:34 1.4M
20260507T00Z_MSC_GDPS_WindU_IsbL-0950_LatLon0.15_PT108H.grib2 2026-05-07 04:34 1.4M
20260507T00Z_MSC_GDPS_WindU_IsbL-0970_LatLon0.15_PT108H.grib2 2026-05-07 04:34 1.4M
20260507T00Z_MSC_GDPS_WindU_IsbL-0985_LatLon0.15_PT108H.grib2 2026-05-07 04:34 1.4M
20260507T00Z_MSC_GDPS_WindU_IsbL-1000_LatLon0.15_PT108H.grib2 2026-05-07 04:34 1.4M
20260507T00Z_MSC_GDPS_WindU_IsbL-1015_LatLon0.15_PT108H.grib2 2026-05-07 04:34 1.3M
20260507T00Z_MSC_GDPS_WindV_AGL-10m_LatLon0.15_PT108H.grib2 2026-05-07 04:34 1.3M
20260507T00Z_MSC_GDPS_WindV_AGL-120m_LatLon0.15_PT108H.grib2 2026-05-07 04:34 1.0M
20260507T00Z_MSC_GDPS_WindV_AGL-40m_LatLon0.15_PT108H.grib2 2026-05-07 04:34 965K
20260507T00Z_MSC_GDPS_WindV_AGL-80m_LatLon0.15_PT108H.grib2 2026-05-07 04:34 970K
20260507T00Z_MSC_GDPS_WindV_IsbL-0001_LatLon0.15_PT108H.grib2 2026-05-07 04:34 722K
20260507T00Z_MSC_GDPS_WindV_IsbL-0005_LatLon0.15_PT108H.grib2 2026-05-07 04:34 784K
20260507T00Z_MSC_GDPS_WindV_IsbL-0010_LatLon0.15_PT108H.grib2 2026-05-07 04:34 806K
20260507T00Z_MSC_GDPS_WindV_IsbL-0020_LatLon0.15_PT108H.grib2 2026-05-07 04:34 855K
20260507T00Z_MSC_GDPS_WindV_IsbL-0030_LatLon0.15_PT108H.grib2 2026-05-07 04:34 863K
20260507T00Z_MSC_GDPS_WindV_IsbL-0050_LatLon0.15_PT108H.grib2 2026-05-07 04:34 696K
20260507T00Z_MSC_GDPS_WindV_IsbL-0100_LatLon0.15_PT108H.grib2 2026-05-07 04:34 854K
20260507T00Z_MSC_GDPS_WindV_IsbL-0150_LatLon0.15_PT108H.grib2 2026-05-07 04:34 1.0M
20260507T00Z_MSC_GDPS_WindV_IsbL-0175_LatLon0.15_PT108H.grib2 2026-05-07 04:34 1.0M
20260507T00Z_MSC_GDPS_WindV_IsbL-0200_LatLon0.15_PT108H.grib2 2026-05-07 04:34 831K
20260507T00Z_MSC_GDPS_WindV_IsbL-0225_LatLon0.15_PT108H.grib2 2026-05-07 04:34 901K
20260507T00Z_MSC_GDPS_WindV_IsbL-0250_LatLon0.15_PT108H.grib2 2026-05-07 04:34 906K
20260507T00Z_MSC_GDPS_WindV_IsbL-0275_LatLon0.15_PT108H.grib2 2026-05-07 04:34 933K
20260507T00Z_MSC_GDPS_WindV_IsbL-0300_LatLon0.15_PT108H.grib2 2026-05-07 04:34 924K
20260507T00Z_MSC_GDPS_WindV_IsbL-0350_LatLon0.15_PT108H.grib2 2026-05-07 04:34 879K
20260507T00Z_MSC_GDPS_WindV_IsbL-0400_LatLon0.15_PT108H.grib2 2026-05-07 04:34 883K
20260507T00Z_MSC_GDPS_WindV_IsbL-0450_LatLon0.15_PT108H.grib2 2026-05-07 04:34 885K
20260507T00Z_MSC_GDPS_WindV_IsbL-0500_LatLon0.15_PT108H.grib2 2026-05-07 04:34 891K
20260507T00Z_MSC_GDPS_WindV_IsbL-0550_LatLon0.15_PT108H.grib2 2026-05-07 04:34 1.1M
20260507T00Z_MSC_GDPS_WindV_IsbL-0600_LatLon0.15_PT108H.grib2 2026-05-07 04:34 1.1M
20260507T00Z_MSC_GDPS_WindV_IsbL-0650_LatLon0.15_PT108H.grib2 2026-05-07 04:34 1.2M
20260507T00Z_MSC_GDPS_WindV_IsbL-0700_LatLon0.15_PT108H.grib2 2026-05-07 04:34 1.2M
20260507T00Z_MSC_GDPS_WindV_IsbL-0750_LatLon0.15_PT108H.grib2 2026-05-07 04:34 1.3M
20260507T00Z_MSC_GDPS_WindV_IsbL-0800_LatLon0.15_PT108H.grib2 2026-05-07 04:34 1.4M
20260507T00Z_MSC_GDPS_WindV_IsbL-0850_LatLon0.15_PT108H.grib2 2026-05-07 04:34 1.4M
20260507T00Z_MSC_GDPS_WindV_IsbL-0875_LatLon0.15_PT108H.grib2 2026-05-07 04:34 1.4M
20260507T00Z_MSC_GDPS_WindV_IsbL-0900_LatLon0.15_PT108H.grib2 2026-05-07 04:34 1.5M
20260507T00Z_MSC_GDPS_WindV_IsbL-0925_LatLon0.15_PT108H.grib2 2026-05-07 04:34 1.4M
20260507T00Z_MSC_GDPS_WindV_IsbL-0950_LatLon0.15_PT108H.grib2 2026-05-07 04:34 1.4M
20260507T00Z_MSC_GDPS_WindV_IsbL-0970_LatLon0.15_PT108H.grib2 2026-05-07 04:34 1.4M
20260507T00Z_MSC_GDPS_WindV_IsbL-0985_LatLon0.15_PT108H.grib2 2026-05-07 04:34 1.4M
20260507T00Z_MSC_GDPS_WindV_IsbL-1000_LatLon0.15_PT108H.grib2 2026-05-07 04:34 1.4M
20260507T00Z_MSC_GDPS_WindV_IsbL-1015_LatLon0.15_PT108H.grib2 2026-05-07 04:34 1.3M